STARLINK-32320, 61638

Orbit data source: Space-Track

STARLINK-32320, 61638 is a payload satellite owned by SpaceX/Seattle (US) in LEO that was launched on Wed, 23 Oct 2024 UTC via an FALCON 9 launch vehicle from the Air Force Eastern Test Range (AFETR). Payload-class satellites include a variety of spacecraft equipped with specific instruments for various scientific and technological missions. These include communications satellites like Starlink; space stations such as the ISS; scientific satellites like the Hubble; Earth observation satellites from companies like Planet Labs, Umbra, and HawkEye 360; GPS; miniature CubeSats for education and research; and military/defense satellites.

Loading next visibility...
Identifier
61638, 2024-191T
Orbit
LEO
Last TLE update
14 hours ago
Origin
Manufacturer
SpaceX/Seattle
Mission
Operational Commercial Communications
Bus & Motor
STARLINK V2M, Unknown motor
Mass
730 kg wet, ~700 kg dry
Launch date (UTC)
2024-10-23 (8 months ago)
Launch vehicle
FALCON 9
Launch site
Air Force Eastern Test Range (AFETR)
Object type
Payload
Rocket body
Debris
Shape & HBR
Box + 2 Pan, 29 m
Radar Cross Section
36.964 m², Large (>1 m²)

Expand to show TLE details & history

TLE from 14 hours ago
0 STARLINK-32320
1 61638U 24191T   25182.16243117 -.00001312  00000-0 -38160-4 0  9995
2 61638  43.0020 138.8831 0000849 266.6783  93.3972 15.27572554 39789
Epoch: 2025-07-01T03:53Z
TLE epoch observation values (Epoch: 2025-07-01T03:53:54.053Z)
Latitude
0.00003°
Longitude
160.94607°
Altitude
482.882 km
Speed
7.626 km/s
True Right ascension
09h 15m 31s
True Declination
0° 00' 00"
Sunlit
Object was in daylight at epoch
Visualization orbit readout
Latitude
-25.72701°
Longitude
126.7423°
Altitude
489.115 km
Speed
7.621 km/s
Apparent Right ascension
10h 11m 01s
Apparent Declination
-70° 40' 30"
Sunlit
Object is in daylight
Visualization observer readout
Local Sidereal Time
05:30:41
Azimuth
158.654° S
Elevation
-31.268°
Doppler factor
1
Orbital elements
Apogee altitude
485.599 km
Perigee altitude
484.434 km
Semi-major axis
6,863.153 km
Eccentricity
0.00008
Inclination
43.002°
RAAN
138.8831°
Arg. of periapsis
266.6783°
True anomaly
Unknown
Mean anomaly
93.3972°
Eccentric anomaly
Unknown
Mean motion
3.81731 °/min
Orbital period
94.31 mins
BSTAR
-0.00003816
Loading maneuver chart data...
Loading SW <> Apogee altitude chart data...
Loading historical data...
Loading historical data...
Loading historical data...
Loading historical data...
Loading historical data...
Loading historical data...
Loading historical data...

STARLINK-32320 Visibility forecast

Observer location: undefined°, undefined°

Span
Click to sort rows by Start time (UTC) header in descending order
Start Az.
Max El. time (UTC)
Max El. Az.
Max El.
End time (UTC)
End Az.
6 mins2025-07-02 00:31:01.570Z219.538° SW2025-07-02 00:34:01.570Z133.942° SE34.043°2025-07-02 00:37:01.570Z80.657° E
6 mins2025-07-02 02:10:01.570Z271.393° WNW2025-07-02 02:13:01.570Z27.785° NE39.626°2025-07-02 02:16:01.570Z70.406° E
5 mins2025-07-02 03:50:01.570Z299.654° NW2025-07-02 03:52:01.570Z25.237° NE39.118°2025-07-02 03:55:01.570Z85.045° E
5 mins2025-07-02 05:29:01.570Z274.181° WNW2025-07-02 05:31:01.570Z184.385° SSW40.249°2025-07-02 05:34:01.570Z125.973° SE
|